Location: Bamazo
(6.7448°N, 10.8189°W)
Time: 00:57:29
(UTC+00:00)

ASTRO E2 - Pass Details

Date: 18 September 2020
Orbit: 509 x 515 km, 31.4° (Epoch: 21 October)

Event Time Altitude Azimuth Distance (km) Brightness Sun altitude
Rises 20:04:54 0° 311° (NW) 2,598 7.1 -21.6°
Reaches altitude 10° 20:07:11 10° 318° (NW) 1,715 5.9 -22.2°
Enters shadow 20:10:13 40° 357° (N) 763 3.5 -22.9°
